Погода в Ивановке

Россия / Тамбовская область     51°57′25″N   42°00′03″E
темп.,
°C
ветер,
м/с
пор.,
м/с
влажн.,
%
обл.,
%
осадки,
мм/ч
давл.,
гПа
погр.,
м
24 сентября, пт
пт2400:00+7юз22775 0.0 101325
03:00+6зюз228431 0.0 101220
06:00+6ююв228590 0.0 101232
09:00+9ю366999 0.0 1012296
12:00+14ю5851100 0.0 10111476
15:00+14ю685011 0.0 10091418
18:00+12ю3563100 0.1 1009143
21:00+11ююв3569100 0.2 1008111
25 сентября, сб
сб2500:00+11юв3571100 0.0 1008132
03:00+8ю368779 0.1 1008112
06:00+7юв3391100 0.0 100842
09:00+11ююв237190 0.0 1009353
12:00+15ююв335695 0.2 10081217
15:00+15ююз1253100 0.6 10091218
18:00+13зюз346187 0.0 101086
21:00+11зсз3670100 0.0 1011184
26 сентября, вс
вс2600:00+10з2473100 0.0 1011151
03:00+8зюз357924 0.0 1011125
06:00+9ююз3681100 0.0 1010178
09:00+11юз477498 0.1 1008523
12:00+9ю5893100 3.3 1007481
15:00+9ю4695100 5.6 1006378
18:00+10сз3793100 0.5 1005366
21:00+9ссз3693100 1.1 1006310
27 сентября, пн
пн2700:00+9св6994100 0.6 1007621
03:00+9с599098 1.0 1010394
06:00+9с51089100 0.1 1012365
09:00+10с61183100 0.3 1014558
12:00+13с785920 0.0 10151276
15:00+12с676799 0.1 10171124
18:00+10с51081100 0.2 1019650
21:00+9с5986100 0.2 1020540
28 сентября, вт
вт2800:00+9с4889100 0.1 1021441
03:00+8с4891100 0.1 1022382
06:00+7с489588 0.0 1023297
09:00+9св4785100 0.0 1025593
12:00+12св45526 0.0 10251147
15:00+14ссв55435 0.0 10251508
18:00+10ссв37575 0.0 1026127
21:00+7ссв376490 0.0 1027148